Time,TemperatureF,DewpointF,PressureIn,WindDirection,WindDirectionDegrees,WindSpeedMPH,WindSpeedGustMPH,Humidity,HourlyPrecipIn,Conditions,Clouds,dailyrainin,SolarRadiationWatts/m^2,SoftwareType,DateUTC
2013-05-10 00:01:00,54.0,38.0,-100.00,North,-999,-999.0,4.0,56,0.00,,,-99.99,0.000000,,2013-05-10 06:01:00,
2013-05-10 00:12:00,52.0,39.0,-100.00,North,-999,-999.0,4.0,61,0.00,,,-99.99,0.000000,,2013-05-10 06:12:00,
2013-05-10 00:21:00,50.0,38.0,-100.00,North,-999,-999.0,3.0,64,0.00,,,-99.99,0.000000,,2013-05-10 06:21:00,
2013-05-10 00:32:00,50.0,39.0,-100.00,North,-999,-999.0,4.0,65,0.00,,,-99.99,0.000000,,2013-05-10 06:32:00,
2013-05-10 00:41:00,50.0,38.0,-100.00,North,-999,-999.0,4.0,62,0.00,,,-99.99,0.000000,,2013-05-10 06:41:00,
2013-05-10 00:51:00,51.0,37.0,-100.00,North,-999,-999.0,4.0,59,0.00,,,-99.99,0.000000,,2013-05-10 06:51:00,
2013-05-10 01:01:00,52.0,37.0,-100.00,North,-999,-999.0,4.0,57,0.00,,,-99.99,0.000000,,2013-05-10 07:01:00,
2013-05-10 01:11:00,51.0,39.0,-100.00,North,-999,-999.0,4.0,64,0.00,,,-99.99,0.000000,,2013-05-10 07:11:00,
2013-05-10 01:21:00,49.0,38.0,-100.00,North,-999,-999.0,4.0,65,0.00,,,-99.99,0.000000,,2013-05-10 07:21:00,
2013-05-10 01:31:00,49.0,38.0,-100.00,North,-999,-999.0,4.0,65,0.00,,,-99.99,0.000000,,2013-05-10 07:31:00,
2013-05-10 01:41:00,50.0,39.0,-100.00,North,-999,-999.0,4.0,66,0.00,,,-99.99,0.000000,,2013-05-10 07:41:00,
2013-05-10 01:50:00,50.0,38.0,-100.00,North,-999,-999.0,5.0,64,0.00,,,-99.99,0.000000,,2013-05-10 07:50:00,
2013-05-10 01:52:00,50.0,40.0,-100.00,North,-999,-999.0,4.0,67,0.00,,,-99.99,0.000000,,2013-05-10 07:52:00,
2013-05-10 02:02:00,50.0,39.0,-100.00,North,-999,-999.0,5.0,65,0.00,,,-99.99,0.000000,,2013-05-10 08:02:00,
2013-05-10 02:12:00,50.0,38.0,-100.00,North,-999,-999.0,5.0,64,0.00,,,-99.99,0.000000,,2013-05-10 08:12:00,
2013-05-10 02:21:00,50.0,38.0,-100.00,North,-999,-999.0,5.0,64,0.00,,,-99.99,0.000000,,2013-05-10 08:21:00,
2013-05-10 02:32:00,50.0,38.0,-100.00,North,-999,-999.0,5.0,64,0.00,,,-99.99,0.000000,,2013-05-10 08:32:00,
2013-05-10 02:41:00,50.0,38.0,-100.00,North,-999,-999.0,5.0,64,0.00,,,-99.99,0.000000,,2013-05-10 08:41:00,
2013-05-10 03:21:00,48.0,38.0,-100.00,North,-999,-999.0,4.0,69,0.00,,,-99.99,0.000000,,2013-05-10 09:21:00,
2013-05-10 03:33:00,49.0,37.0,-100.00,North,-999,-999.0,5.0,63,0.00,,,-99.99,0.000000,,2013-05-10 09:33:00,
2013-05-10 03:43:00,52.0,38.0,-100.00,North,-999,-999.0,8.0,59,0.00,,,-99.99,0.000000,,2013-05-10 09:43:00,
2013-05-10 03:52:00,52.0,37.0,-100.00,North,-999,-999.0,11.0,57,0.00,,,-99.99,0.000000,,2013-05-10 09:52:00,
2013-05-10 04:02:00,52.0,37.0,-100.00,North,-999,-999.0,11.0,56,0.00,,,-99.99,0.000000,,2013-05-10 10:02:00,
2013-05-10 04:12:00,53.0,37.0,-100.00,North,-999,-999.0,11.0,55,0.00,,,-99.99,0.000000,,2013-05-10 10:12:00,
2013-05-10 04:23:00,53.0,36.0,-100.00,North,-999,-999.0,8.0,53,0.00,,,-99.99,0.000000,,2013-05-10 10:23:00,
2013-05-10 04:32:00,52.0,37.0,-100.00,North,-999,-999.0,5.0,56,0.00,,,-99.99,0.000000,,2013-05-10 10:32:00,
2013-05-10 04:41:00,50.0,37.0,-100.00,North,-999,-999.0,5.0,61,0.00,,,-99.99,0.000000,,2013-05-10 10:41:00,
2013-05-10 04:52:00,49.0,37.0,-100.00,North,-999,-999.0,4.0,64,0.00,,,-99.99,0.000000,,2013-05-10 10:52:00,
2013-05-10 05:02:00,47.0,37.0,-100.00,North,-999,-999.0,2.0,68,0.00,,,-99.99,0.000000,,2013-05-10 11:02:00,
2013-05-10 05:12:00,46.0,37.0,-100.00,North,-999,-999.0,4.0,71,0.00,,,-99.99,0.000000,,2013-05-10 11:12:00,
2013-05-10 05:21:00,47.0,37.0,-100.00,North,-999,-999.0,4.0,68,0.00,,,-99.99,0.000000,,2013-05-10 11:21:00,
2013-05-10 05:31:00,47.0,37.0,-100.00,North,-999,-999.0,4.0,68,0.00,,,-99.99,0.000000,,2013-05-10 11:31:00,
2013-05-10 05:42:00,47.0,37.0,-100.00,North,-999,-999.0,5.0,68,0.00,,,-99.99,0.000000,,2013-05-10 11:42:00,
2013-05-10 05:51:00,47.0,36.0,-100.00,North,-999,-999.0,5.0,66,0.00,,,-99.99,0.000000,,2013-05-10 11:51:00,
2013-05-10 06:01:00,49.0,37.0,-100.00,North,-999,-999.0,8.0,62,0.00,,,-99.99,0.000000,,2013-05-10 12:01:00,
2013-05-10 06:11:00,49.0,36.0,-100.00,North,-999,-999.0,8.0,63,0.00,,,-99.99,0.000000,,2013-05-10 12:11:00,
2013-05-10 06:21:00,49.0,37.0,-100.00,North,-999,-999.0,6.0,62,0.00,,,-99.99,0.000000,,2013-05-10 12:21:00,
2013-05-10 06:32:00,48.0,36.0,-100.00,North,-999,-999.0,6.0,63,0.00,,,-99.99,2.000000,,2013-05-10 12:32:00,
2013-05-10 06:41:00,48.0,36.0,-100.00,North,-999,-999.0,6.0,64,0.00,,,-99.99,8.000000,,2013-05-10 12:41:00,
2013-05-10 06:50:00,51.0,35.0,-100.00,North,-999,-999.0,9.0,56,0.00,,,-99.99,35.000000,,2013-05-10 12:50:00,
2013-05-10 06:51:00,47.0,36.0,-100.00,North,-999,-999.0,4.0,66,0.00,,,-99.99,18.000000,,2013-05-10 12:51:00,
2013-05-10 07:01:00,49.0,36.0,-100.00,North,-999,-999.0,9.0,60,0.00,,,-99.99,25.000000,,2013-05-10 13:01:00,
2013-05-10 07:11:00,51.0,35.0,-100.00,North,-999,-999.0,9.0,56,0.00,,,-99.99,35.000000,,2013-05-10 13:11:00,
2013-05-10 07:21:00,51.0,35.0,-100.00,North,-999,-999.0,9.0,56,0.00,,,-99.99,35.000000,,2013-05-10 13:21:00,
2013-05-10 07:31:00,51.0,35.0,-100.00,North,-999,-999.0,9.0,56,0.00,,,-99.99,35.000000,,2013-05-10 13:31:00,
2013-05-10 07:41:00,51.0,35.0,-100.00,North,-999,-999.0,9.0,56,0.00,,,-99.99,35.000000,,2013-05-10 13:41:00,
2013-05-10 08:21:00,56.0,37.0,-100.00,North,-999,-999.0,8.0,50,0.00,,,-99.99,306.000000,,2013-05-10 14:21:00,
2013-05-10 08:32:00,56.0,38.0,-100.00,North,-999,-999.0,8.0,50,0.00,,,-99.99,347.000000,,2013-05-10 14:32:00,
2013-05-10 08:42:00,57.0,41.0,-100.00,North,-999,-999.0,8.0,55,0.00,,,-99.99,387.000000,,2013-05-10 14:42:00,
2013-05-10 08:52:00,58.0,38.0,-100.00,North,-999,-999.0,8.0,47,0.00,,,-99.99,427.000000,,2013-05-10 14:52:00,
2013-05-10 09:01:00,59.0,39.0,-100.00,North,-999,-999.0,8.0,47,0.00,,,-99.99,468.000000,,2013-05-10 15:01:00,
2013-05-10 09:21:00,61.0,36.0,-100.00,North,-999,-999.0,5.0,39,0.00,,,-99.99,549.000000,,2013-05-10 15:21:00,
2013-05-10 09:32:00,61.0,36.0,-100.00,North,-999,-999.0,5.0,39,0.00,,,-99.99,549.000000,,2013-05-10 15:32:00,
2013-05-10 09:42:00,60.0,42.0,-100.00,North,-999,-999.0,4.0,51,0.00,,,-99.99,624.000000,,2013-05-10 15:42:00,
2013-05-10 09:52:00,60.0,40.0,-100.00,North,-999,-999.0,5.0,47,0.00,,,-99.99,663.000000,,2013-05-10 15:52:00,
2013-05-10 10:02:00,61.0,39.0,-100.00,North,-999,-999.0,4.0,44,0.00,,,-99.99,702.000000,,2013-05-10 16:02:00,
2013-05-10 10:12:00,62.0,41.0,-100.00,North,-999,-999.0,5.0,45,0.00,,,-99.99,736.000000,,2013-05-10 16:12:00,
2013-05-10 10:23:00,63.0,40.0,-100.00,North,-999,-999.0,3.0,43,0.00,,,-99.99,774.000000,,2013-05-10 16:23:00,
2013-05-10 10:32:00,63.0,38.0,-100.00,North,-999,-999.0,4.0,39,0.00,,,-99.99,806.000000,,2013-05-10 16:32:00,
2013-05-10 10:42:00,64.0,39.0,-100.00,North,-999,-999.0,7.0,41,0.00,,,-99.99,841.000000,,2013-05-10 16:42:00,
2013-05-10 10:52:00,65.0,41.0,-100.00,North,-999,-999.0,5.0,41,0.00,,,-99.99,873.000000,,2013-05-10 16:52:00,
2013-05-10 11:02:00,66.0,38.0,-100.00,North,-999,-999.0,4.0,35,0.00,,,-99.99,902.000000,,2013-05-10 17:02:00,
2013-05-10 11:12:00,65.0,40.0,-100.00,North,-999,-999.0,8.0,40,0.00,,,-99.99,931.000000,,2013-05-10 17:12:00,
2013-05-10 11:21:00,65.0,40.0,-100.00,North,-999,-999.0,8.0,40,0.00,,,-99.99,931.000000,,2013-05-10 17:21:00,
2013-05-10 11:32:00,67.0,37.0,-100.00,North,-999,-999.0,7.0,33,0.00,,,-99.99,990.000000,,2013-05-10 17:32:00,
2013-05-10 11:42:00,68.0,38.0,-100.00,North,-999,-999.0,7.0,34,0.00,,,-99.99,1014.000000,,2013-05-10 17:42:00,
2013-05-10 11:50:00,68.0,34.0,-100.00,North,-999,-999.0,7.0,28,0.00,,,-99.99,1083.000000,,2013-05-10 17:50:00,
2013-05-10 11:51:00,68.0,36.0,-100.00,North,-999,-999.0,7.0,31,0.00,,,-99.99,1038.000000,,2013-05-10 17:51:00,
2013-05-10 12:11:00,68.0,34.0,-100.00,North,-999,-999.0,7.0,28,0.00,,,-99.99,1083.000000,,2013-05-10 18:11:00,
2013-05-10 12:21:00,68.0,34.0,-100.00,North,-999,-999.0,7.0,28,0.00,,,-99.99,1083.000000,,2013-05-10 18:21:00,
2013-05-10 12:34:00,68.0,34.0,-100.00,North,-999,-999.0,7.0,28,0.00,,,-99.99,1083.000000,,2013-05-10 18:34:00,
2013-05-10 12:43:00,68.0,34.0,-100.00,North,-999,-999.0,7.0,28,0.00,,,-99.99,1083.000000,,2013-05-10 18:43:00,
2013-05-10 13:21:00,72.0,38.0,-100.00,North,-999,-999.0,11.0,29,0.00,,,-99.99,1172.000000,,2013-05-10 19:21:00,
2013-05-10 13:32:00,73.0,30.0,-100.00,North,-999,-999.0,9.0,20,0.00,,,-99.99,1175.000000,,2013-05-10 19:32:00,
2013-05-10 13:42:00,73.0,32.0,-100.00,North,-999,-999.0,11.0,22,0.00,,,-99.99,1178.000000,,2013-05-10 19:42:00,
2013-05-10 13:52:00,73.0,33.0,-100.00,North,-999,-999.0,11.0,23,0.00,,,-99.99,1180.000000,,2013-05-10 19:52:00,
2013-05-10 14:01:00,75.0,31.0,-100.00,North,-999,-999.0,13.0,20,0.00,,,-99.99,1181.000000,,2013-05-10 20:01:00,
2013-05-10 14:11:00,75.0,30.0,-100.00,North,-999,-999.0,12.0,19,0.00,,,-99.99,1179.000000,,2013-05-10 20:11:00,
2013-05-10 14:21:00,74.0,30.0,-100.00,North,-999,-999.0,11.0,20,0.00,,,-99.99,1173.000000,,2013-05-10 20:21:00,
2013-05-10 14:31:00,75.0,31.0,-100.00,North,-999,-999.0,12.0,20,0.00,,,-99.99,1166.000000,,2013-05-10 20:31:00,
2013-05-10 14:41:00,74.0,33.0,-100.00,North,-999,-999.0,13.0,22,0.00,,,-99.99,1160.000000,,2013-05-10 20:41:00,
2013-05-10 14:52:00,76.0,25.0,-100.00,North,-999,-999.0,14.0,15,0.00,,,-99.99,1149.000000,,2013-05-10 20:52:00,
2013-05-10 15:01:00,75.0,26.0,-100.00,North,-999,-999.0,16.0,16,0.00,,,-99.99,1134.000000,,2013-05-10 21:01:00,
2013-05-10 15:11:00,75.0,29.0,-100.00,North,-999,-999.0,14.0,18,0.00,,,-99.99,1114.000000,,2013-05-10 21:11:00,
2013-05-10 15:24:00,76.0,35.0,-100.00,North,-999,-999.0,14.0,23,0.00,,,-99.99,1100.000000,,2013-05-10 21:24:00,
2013-05-10 15:32:00,76.0,35.0,-100.00,North,-999,-999.0,14.0,23,0.00,,,-99.99,1100.000000,,2013-05-10 21:32:00,
2013-05-10 15:42:00,76.0,30.0,-100.00,North,-999,-999.0,15.0,18,0.00,,,-99.99,1061.000000,,2013-05-10 21:42:00,
2013-05-10 15:52:00,76.0,29.0,-100.00,North,-999,-999.0,14.0,18,0.00,,,-99.99,1037.000000,,2013-05-10 21:52:00,
2013-05-10 16:02:00,76.0,34.0,-100.00,North,-999,-999.0,15.0,22,0.00,,,-99.99,1011.000000,,2013-05-10 22:02:00,
2013-05-10 16:12:00,77.0,33.0,-100.00,North,-999,-999.0,20.0,20,0.00,,,-99.99,983.000000,,2013-05-10 22:12:00,
2013-05-10 16:22:00,77.0,33.0,-100.00,North,-999,-999.0,14.0,20,0.00,,,-99.99,958.000000,,2013-05-10 22:22:00,
2013-05-10 16:32:00,77.0,31.0,-100.00,North,-999,-999.0,14.0,19,0.00,,,-99.99,928.000000,,2013-05-10 22:32:00,
2013-05-10 16:42:00,76.0,43.0,-100.00,North,-999,-999.0,10.0,31,0.00,,,-99.99,892.000000,,2013-05-10 22:42:00,
2013-05-10 16:50:00,77.0,35.0,-100.00,North,-999,-999.0,12.0,22,0.00,,,-99.99,803.000000,,2013-05-10 22:50:00,
2013-05-10 17:02:00,76.0,30.0,-100.00,North,-999,-999.0,13.0,18,0.00,,,-99.99,838.000000,,2013-05-10 23:02:00,
2013-05-10 17:12:00,77.0,35.0,-100.00,North,-999,-999.0,12.0,22,0.00,,,-99.99,803.000000,,2013-05-10 23:12:00,
2013-05-10 17:21:00,77.0,35.0,-100.00,North,-999,-999.0,12.0,22,0.00,,,-99.99,803.000000,,2013-05-10 23:21:00,
2013-05-10 17:32:00,77.0,35.0,-100.00,North,-999,-999.0,12.0,22,0.00,,,-99.99,803.000000,,2013-05-10 23:32:00,
2013-05-10 17:41:00,77.0,35.0,-100.00,North,-999,-999.0,12.0,22,0.00,,,-99.99,803.000000,,2013-05-10 23:41:00,
2013-05-10 18:22:00,77.0,35.0,-100.00,North,-999,-999.0,14.0,22,0.00,,,-99.99,681.000000,,2013-05-11 00:22:00,
2013-05-10 18:32:00,77.0,35.0,-100.00,North,-999,-999.0,14.0,22,0.00,,,-99.99,681.000000,,2013-05-11 00:32:00,
2013-05-10 18:42:00,76.0,32.0,-100.00,North,-999,-999.0,13.0,20,0.00,,,-99.99,544.000000,,2013-05-11 00:42:00,
2013-05-10 18:52:00,76.0,35.0,-100.00,North,-999,-999.0,11.0,23,0.00,,,-99.99,526.000000,,2013-05-11 00:52:00,
2013-05-10 19:01:00,75.0,34.0,-100.00,North,-999,-999.0,14.0,22,0.00,,,-99.99,459.000000,,2013-05-11 01:01:00,
2013-05-10 19:11:00,75.0,33.0,-100.00,North,-999,-999.0,12.0,22,0.00,,,-99.99,320.000000,,2013-05-11 01:11:00,
2013-05-10 19:21:00,73.0,33.0,-100.00,North,-999,-999.0,14.0,23,0.00,,,-99.99,128.000000,,2013-05-11 01:21:00,
2013-05-10 19:31:00,72.0,33.0,-100.00,North,-999,-999.0,13.0,24,0.00,,,-99.99,105.000000,,2013-05-11 01:31:00,
2013-05-10 19:42:00,72.0,35.0,-100.00,North,-999,-999.0,11.0,26,0.00,,,-99.99,102.000000,,2013-05-11 01:42:00,
2013-05-10 19:51:00,71.0,36.0,-100.00,North,-999,-999.0,10.0,27,0.00,,,-99.99,116.000000,,2013-05-11 01:51:00,
2013-05-10 20:02:00,72.0,37.0,-100.00,North,-999,-999.0,8.0,28,0.00,,,-99.99,165.000000,,2013-05-11 02:02:00,
2013-05-10 20:11:00,71.0,37.0,-100.00,North,-999,-999.0,6.0,29,0.00,,,-99.99,140.000000,,2013-05-11 02:11:00,
2013-05-10 20:21:00,70.0,36.0,-100.00,North,-999,-999.0,8.0,29,0.00,,,-99.99,109.000000,,2013-05-11 02:21:00,
2013-05-10 20:32:00,69.0,39.0,-100.00,North,-999,-999.0,6.0,33,0.00,,,-99.99,65.000000,,2013-05-11 02:32:00,
2013-05-10 20:42:00,68.0,37.0,-100.00,North,-999,-999.0,6.0,32,0.00,,,-99.99,34.000000,,2013-05-11 02:42:00,
2013-05-10 20:51:00,67.0,36.0,-100.00,North,-999,-999.0,10.0,32,0.00,,,-99.99,13.000000,,2013-05-11 02:51:00,
2013-05-10 21:01:00,67.0,36.0,-100.00,North,-999,-999.0,13.0,32,0.00,,,-99.99,2.000000,,2013-05-11 03:01:00,
2013-05-10 21:11:00,66.0,35.0,-100.00,North,-999,-999.0,17.0,32,0.00,,,-99.99,0.000000,,2013-05-11 03:11:00,
2013-05-10 21:21:00,65.0,35.0,-100.00,North,-999,-999.0,16.0,33,0.00,,,-99.99,0.000000,,2013-05-11 03:21:00,
2013-05-10 21:32:00,64.0,35.0,-100.00,North,-999,-999.0,15.0,34,0.00,,,-99.99,0.000000,,2013-05-11 03:32:00,
2013-05-10 21:42:00,64.0,35.0,-100.00,North,-999,-999.0,16.0,34,0.00,,,-99.99,0.000000,,2013-05-11 03:42:00,
2013-05-10 21:50:00,63.0,35.0,-100.00,North,-999,-999.0,16.0,35,0.00,,,-99.99,0.000000,,2013-05-11 03:50:00,
2013-05-10 21:53:00,63.0,34.0,-100.00,North,-999,-999.0,13.0,34,0.00,,,-99.99,0.000000,,2013-05-11 03:53:00,
2013-05-10 22:02:00,63.0,34.0,-100.00,North,-999,-999.0,14.0,34,0.00,,,-99.99,0.000000,,2013-05-11 04:02:00,
2013-05-10 22:12:00,63.0,35.0,-100.00,North,-999,-999.0,16.0,35,0.00,,,-99.99,0.000000,,2013-05-11 04:12:00,
2013-05-10 22:23:00,63.0,35.0,-100.00,North,-999,-999.0,16.0,35,0.00,,,-99.99,0.000000,,2013-05-11 04:23:00,
2013-05-10 22:32:00,63.0,35.0,-100.00,North,-999,-999.0,16.0,35,0.00,,,-99.99,0.000000,,2013-05-11 04:32:00,
2013-05-10 22:43:00,63.0,35.0,-100.00,North,-999,-999.0,16.0,35,0.00,,,-99.99,0.000000,,2013-05-11 04:43:00,
2013-05-10 23:22:00,61.0,36.0,-100.00,North,-999,-999.0,14.0,40,0.00,,,-99.99,0.000000,,2013-05-11 05:22:00,
2013-05-10 23:32:00,61.0,35.0,-100.00,North,-999,-999.0,15.0,38,0.00,,,-99.99,0.000000,,2013-05-11 05:32:00,
2013-05-10 23:42:00,61.0,35.0,-100.00,North,-999,-999.0,14.0,38,0.00,,,-99.99,0.000000,,2013-05-11 05:42:00,
2013-05-10 23:52:00,61.0,36.0,-100.00,North,-999,-999.0,14.0,39,0.00,,,-99.99,0.000000,,2013-05-11 05:52:00,